Location: Bishop�s Knoyle
(51.0728°N, 2.1714°W)
Time: 04:00:16
(UTC+00:00)

NOSS 3-1 (A) - Pass Details

Date: 18 September 2020
Orbit: 745 x 1467 km, 63.4° (Epoch: 08 October)

Event Time Altitude Azimuth Distance (km) Brightness Sun altitude
Rises 18:53:18 0° 239° (WSW) 3,318 7.1 -6.8°
Reaches altitude 10° 18:55:36 10° 243° (WSW) 2,454 6.5 -7.1°
Maximum altitude 19:01:12 60° 323° (NW) 1,070 4.0 -8.0°
Drops below altitude 10° 19:07:53 10° 43° (NE) 2,913 5.7 -9.0°
Sets 19:10:51 0° 47° (NE) 3,990 6.4 -9.5°
